Flag for Canada Weather past 2 weeks in Surrey, British Columbia, Canada

Now
60 °F

Cool.


Feels Like: 60 °F
Forecast: 54 / 63 °F
Wind: No wind

Location: P. Meadows Coastal Station

Current Time: Aug 30, 2014 at 11:53:38 PM

Latest Report: Aug 30, 2014 at 11:00 PM


Visibility: N/A

Pressure: 29.93 "Hg

Humidity: 88%

Dew point: 56 °F

Location of SurreyLocation

Historic Weather in Surrey — Graph

°F

Surrey temperature yesterday

Maximum temperature yesterday: 69 °F (at 3:00 PM)
Minimum temperature yesterday: 60 °F (at 11:00 PM)
Average temperature yesterday: 64 °F

Past Weeks' High & Low Weather Summary

 TemperatureHumidityPressure
High84 °F (Aug 26, 5:00 PM)100% (Aug 17, 1:00 AM)30.15 "Hg (Aug 17, 1:00 AM)
Low53 °F (Aug 22, 3:00 AM)32% (Aug 23, 6:00 PM)29.75 "Hg (Aug 19, 7:00 PM)
Average67 °F74%29.99 "Hg
* Reported Aug 15 10:00 PM — Aug 30 10:00 PM, Surrey, Weather by CustomWeather, © 2014

Note: Actual official high and low records may vary slightly from our data, if they occured in-between our weather recording intervals... More about our weather records

Advertising

Surrey weather history for previous 24 hours

 ConditionsComfort  
Time TempWeatherWind HumidityBarometerVisibility
10:00 PM
Aug 30
61 °FCool.1 mph83%29.92 "HgN/A
9:00 PM62 °FCool.1 mph79%29.90 "HgN/A
8:00 PM63 °FMild.2 mph76%29.89 "HgN/A
7:00 PM64 °FMild.2 mph76%29.88 "HgN/A
6:00 PM65 °FMild.2 mph71%29.87 "HgN/A
5:00 PM64 °FMild.3 mph83%29.88 "HgN/A
4:00 PM64 °FMild.5 mph77%29.88 "HgN/A
3:00 PM67 °FMild.5 mph62%29.88 "HgN/A
2:00 PM67 °FMild.7 mph65%29.89 "HgN/A
1:00 PM67 °FMild.5 mph65%29.89 "HgN/A
12:00 PM67 °FMild.3 mph66%29.89 "HgN/A
11:00 AM66 °FMild.2 mph68%29.90 "HgN/A
10:00 AM64 °FMild.2 mph70%29.90 "HgN/A
9:00 AM62 °FCool.1 mph77%29.90 "HgN/A
8:00 AM61 °FCool.3 mph84%29.90 "HgN/A
7:00 AM56 °FCool.No wind94%29.90 "HgN/A
6:00 AM56 °FCool.1 mph91%29.90 "HgN/A
5:00 AM58 °FCool.1 mph90%29.90 "HgN/A
4:00 AM58 °FCool.3 mph91%29.90 "HgN/A
3:00 AM59 °FCool.1 mph90%29.92 "HgN/A
2:00 AM59 °FCool.No wind90%29.92 "HgN/A
1:00 AM59 °FCool.2 mph90%29.92 "HgN/A
12:00 AM60 °FCool.3 mph88%29.93 "HgN/A
11:00 PM
Aug 29
60 °FCool.3 mph86%29.93 "HgN/A
Weather by CustomWeather, © 2014

See weather overviewHow to use our weather pages